Location: Davayat
(45.9471°N, 3.1105°E)
Time: 23:21:24
(UTC+00:00)

Meteor 2-12 Rocket - Pass Details

Date: 22 April 2021
Orbit: 935 x 958 km, 82.5° (Epoch: 16 May)

Event Time Altitude Azimuth Distance (km) Brightness Sun altitude
Rises 01:49:41 0° 333° (NNW) 3,628 7.9 -25.5°
Reaches altitude 10° 01:53:44 10° 307° (NW) 2,671 6.8 -25.1°
Enters shadow 01:55:45 13° 288° (WNW) 2,472 6.4 -24.9°
